OPS 4682 DEB, 29061

Orbit data source: Space-Track

OPS 4682 DEB, 29061 is space debris in LEO originally from a launch on Sat, 03 Apr 1965 UTC launched from the Air Force Western Test Range (AFWTR). Debris objects in space refer to the collection of defunct objects orbiting the Earth. Examples of debris include non-operational satellites, rocket bodies, and fragments generated from explosions, collisions, or faulty payload assembly.

Loading next visibility...
Identifier
29061, 1965-027BL
Orbit
LEO
Country
Flag of USUS
Related business
Manufacturer
Unknown
Mission
Spacecraft
Bus & Motor
Unknown
Mass
Unknown
Launch date (UTC)
1965-04-03 (61 years ago)
Launch vehicle
Unknown
Launch site
Air Force Western Test Range (AFWTR)
Object type
Payload
Rocket body
Debris
Shape & HBR
Unknown shape, 0.1 m
Radar Cross Section
Medium (>0.1 m² and <1 m²)

Expand to show TLE details & history
Last TLE update: 1 day ago

TLE from 1 day ago
0 OPS 4682 DEB
1 29061U 65027BL  26220.92120456  .00000309  00000-0  10784-2 0  9993
2 29061  90.2544  18.8252 0032957  80.8287  73.6091 12.94687762235221
Epoch: 2026-08-08T22:06Z
TLE epoch observation values (Epoch: 2026-08-08T22:06:32.073Z)
Latitude
25.22535°
Longitude
-90.1148°
Altitude
1,278.969 km
Speed
7.222 km/s
True Right ascension
13h 15m 46s
True Declination
25° 06' 07"
Sunlit
Object was in daylight at epoch
Visualization orbit readout
Latitude
Unknown
Longitude
Unknown
Altitude
Unknown
Speed
Unknown
Apparent Right ascension
Unknown
Apparent Declination
Unknown
Sunlit
N/A
Visualization observer readout
Local Sidereal Time
15:42:49
Azimuth
Unknown
Elevation
Unknown
Doppler factor
Unknown
Orbital elements
Apogee altitude
1,305.346 km
Perigee altitude
1,254.867 km
Semi-major axis
7,658.243 km
Eccentricity
0.0033
Inclination
90.2544°
RAAN
18.8252°
Arg. of periapsis
80.8287°
True anomaly
73.97183°
Mean anomaly
73.6091°
Eccentric anomaly
73.79042°
Mean motion
3.23854 °/min
Orbital period
111.16 mins
BSTAR
0.0010784
Loading maneuver chart data...
Computing Atmospheric mass density...
Loading historical data...
Loading historical data...
Loading historical data...
Loading historical data...
Loading historical data...
Loading historical data...
Loading historical data...

Documentation

Showing up to 5 results
|